IGO1608 VOMM-VABB

Flight info

Callsign IGO1608
Flight time 1h 34m
Altitude 38000
Route DOLKI2B DOLKI Q8 BEDOL MOLGO2A
Aircraft A20N/M-SDE2E3FGHIRWXY/LB1

Departure

Time 2026-05-04 18:04
Airport Chennai International Airport (VOMM)

Arrival

Time 2026-05-04 19:39
Airport Chhatrapati Shivaji Maharaj International Airport (VABB)
Time Latitude Longitude Altitude Speed Heading
2026-05-04 17:46 12.98482 80.16287 55 ft 0 kts 341°
2026-05-04 17:56 12.98467 80.16292 50 ft 2 kts 342°
2026-05-04 17:56 12.98451 80.16297 51 ft 2 kts 344°
2026-05-04 17:56 12.98435 80.16301 51 ft 2 kts 355°
2026-05-04 17:56 12.98420 80.16297 49 ft 2 kts 65°
2026-05-04 17:57 12.98417 80.16291 48 ft 0 kts 70°
2026-05-04 17:58 12.98420 80.16297 49 ft 3 kts 70°
2026-05-04 17:58 12.98434 80.16337 55 ft 9 kts 70°
2026-05-04 17:58 12.98462 80.16416 50 ft 14 kts 69°
2026-05-04 17:59 12.98497 80.16511 53 ft 14 kts 69°
2026-05-04 17:59 12.98535 80.16617 52 ft 16 kts 69°
2026-05-04 17:59 12.98624 80.16769 52 ft 13 kts 346°
2026-05-04 18:00 12.98723 80.16731 51 ft 15 kts 349°
2026-05-04 18:00 12.98785 80.16814 51 ft 18 kts 69°
2026-05-04 18:00 12.98834 80.16943 51 ft 21 kts 69°
2026-05-04 18:00 12.98889 80.17088 54 ft 20 kts 69°
2026-05-04 18:01 12.98943 80.17224 54 ft 22 kts 63°
2026-05-04 18:01 12.99009 80.17372 53 ft 22 kts 69°
2026-05-04 18:01 12.99058 80.17500 52 ft 20 kts 69°
2026-05-04 18:02 12.99196 80.17708 56 ft 10 kts 32°
2026-05-04 18:02 12.99225 80.17772 51 ft 13 kts 68°
2026-05-04 18:02 12.99266 80.17879 52 ft 19 kts 70°
2026-05-04 18:02 12.99319 80.18019 53 ft 19 kts 69°
2026-05-04 18:03 12.99375 80.18121 58 ft 15 kts 27°
2026-05-04 18:03 12.99449 80.18060 57 ft 16 kts 273°
2026-05-04 18:03 12.99438 80.18023 57 ft 0 kts 251°
2026-05-04 18:03 12.99401 80.17923 54 ft 53 kts 248°
2026-05-04 18:04 12.99163 80.17290 51 ft 132 kts 249°
2026-05-04 18:04 12.98788 80.16283 542 ft 154 kts 248°
2026-05-04 18:04 12.98137 80.14103 2215 ft 176 kts 266°
2026-05-04 18:05 12.98580 80.12857 2803 ft 205 kts 306°
2026-05-04 18:05 12.99786 80.11962 3425 ft 225 kts 334°
2026-05-04 18:05 13.01259 80.11183 4067 ft 251 kts 332°
2026-05-04 18:05 13.02851 80.10287 4996 ft 269 kts 331°
2026-05-04 18:06 13.06221 80.08363 7337 ft 281 kts 332°
2026-05-04 18:06 13.07945 80.07385 8523 ft 285 kts 332°
2026-05-04 18:06 13.09688 80.06400 9771 ft 288 kts 333°
2026-05-04 18:07 13.11476 80.05391 10705 ft 302 kts 332°
2026-05-04 18:07 13.13395 80.04313 11287 ft 326 kts 332°
2026-05-04 18:07 13.15453 80.03157 11920 ft 345 kts 332°
2026-05-04 18:07 13.17570 80.01966 12933 ft 350 kts 332°
2026-05-04 18:08 13.19720 80.00756 13971 ft 354 kts 332°
2026-05-04 18:08 13.21908 79.99525 14788 ft 363 kts 331°
2026-05-04 18:08 13.24142 79.98268 15631 ft 370 kts 330°
2026-05-04 18:08 13.26418 79.96988 16470 ft 377 kts 330°
2026-05-04 18:09 13.31092 79.94358 18118 ft 390 kts 330°
2026-05-04 18:09 13.35904 79.91646 19555 ft 400 kts 330°
2026-05-04 18:10 13.38332 79.90276 20241 ft 405 kts 330°
2026-05-04 18:10 13.40848 79.88857 20967 ft 410 kts 330°
2026-05-04 18:10 13.43330 79.87457 21635 ft 415 kts 330°
2026-05-04 18:10 13.45906 79.86004 22302 ft 420 kts 330°
2026-05-04 18:11 13.48493 79.84544 22948 ft 426 kts 330°
2026-05-04 18:11 13.51064 79.83093 23561 ft 430 kts 329°
2026-05-04 18:11 13.53694 79.81596 24143 ft 433 kts 328°
2026-05-04 18:11 13.56173 79.79836 24734 ft 434 kts 319°
2026-05-04 18:12 13.58414 79.77702 25292 ft 435 kts 311°
2026-05-04 18:12 13.60337 79.75295 25825 ft 437 kts 306°
2026-05-04 18:12 13.62162 79.72837 26346 ft 440 kts 306°
2026-05-04 18:12 13.64033 79.70335 26876 ft 443 kts 306°
2026-05-04 18:13 13.65865 79.67893 27365 ft 446 kts 306°
2026-05-04 18:13 13.67725 79.65414 27838 ft 449 kts 306°
2026-05-04 18:13 13.71605 79.60237 28793 ft 455 kts 306°
2026-05-04 18:14 13.73542 79.57650 29240 ft 458 kts 306°
2026-05-04 18:14 13.75486 79.55054 29687 ft 461 kts 306°
2026-05-04 18:14 13.77450 79.52429 30081 ft 464 kts 306°
2026-05-04 18:15 13.81399 79.47151 30906 ft 468 kts 306°
2026-05-04 18:15 13.85370 79.41838 31933 ft 467 kts 306°
2026-05-04 18:15 13.87343 79.39198 32493 ft 465 kts 306°
2026-05-04 18:16 13.89313 79.36561 33059 ft 463 kts 306°
2026-05-04 18:16 13.91273 79.33936 33609 ft 461 kts 306°
2026-05-04 18:16 13.93226 79.31320 34113 ft 460 kts 306°
2026-05-04 18:17 13.97116 79.26108 34994 ft 458 kts 306°
2026-05-04 18:17 13.99056 79.23507 35411 ft 458 kts 306°
2026-05-04 18:17 14.02922 79.18321 36297 ft 456 kts 305°
2026-05-04 18:18 14.04853 79.15730 36749 ft 456 kts 305°
2026-05-04 18:18 14.06781 79.13142 37221 ft 455 kts 305°
2026-05-04 18:18 14.08701 79.10563 37613 ft 455 kts 305°
2026-05-04 18:18 14.10627 79.07976 37723 ft 452 kts 305°
2026-05-04 18:19 14.14442 79.02850 37880 ft 451 kts 305°
2026-05-04 18:19 14.18257 78.97719 37883 ft 451 kts 305°
2026-05-04 18:20 14.22076 78.92579 37884 ft 451 kts 305°
2026-05-04 18:20 14.25891 78.87442 37887 ft 451 kts 305°
2026-05-04 18:21 14.29691 78.82288 37882 ft 451 kts 303°
2026-05-04 18:21 14.33106 78.76952 37882 ft 455 kts 301°
2026-05-04 18:22 14.36630 78.71430 37880 ft 469 kts 301°
2026-05-04 18:22 14.39633 78.66727 37881 ft 468 kts 301°
2026-05-04 18:23 14.43788 78.60210 37878 ft 468 kts 301°
2026-05-04 18:23 14.47358 78.54603 37879 ft 467 kts 301°
2026-05-04 18:24 14.50345 78.49907 37873 ft 467 kts 301°
2026-05-04 18:24 14.53906 78.44306 37879 ft 467 kts 301°
2026-05-04 18:25 14.57471 78.38695 37874 ft 467 kts 301°
2026-05-04 18:25 14.61035 78.33082 37871 ft 467 kts 301°
2026-05-04 18:26 14.64564 78.27519 37874 ft 466 kts 301°
2026-05-04 18:26 14.68106 78.21932 37873 ft 466 kts 301°
2026-05-04 18:27 14.71653 78.16333 37877 ft 466 kts 301°
2026-05-04 18:27 14.75202 78.10728 37874 ft 466 kts 301°
2026-05-04 18:28 14.78750 78.05121 37875 ft 466 kts 301°
2026-05-04 18:28 14.82289 77.99522 37881 ft 466 kts 301°
2026-05-04 18:29 14.85835 77.93909 37876 ft 466 kts 301°
2026-05-04 18:29 14.89373 77.88304 37875 ft 466 kts 301°
2026-05-04 18:30 14.94686 77.79881 37876 ft 466 kts 301°
2026-05-04 18:31 14.98228 77.74260 37866 ft 466 kts 301°
2026-05-04 18:31 15.01764 77.68645 37874 ft 466 kts 301°
2026-05-04 18:32 15.05303 77.63021 37870 ft 467 kts 301°
2026-05-04 18:32 15.08843 77.57391 37869 ft 467 kts 301°
2026-05-04 18:33 15.12387 77.51752 37867 ft 467 kts 301°
2026-05-04 18:33 15.15924 77.46119 37868 ft 467 kts 301°
2026-05-04 18:34 15.19466 77.40474 37862 ft 467 kts 301°
2026-05-04 18:34 15.23002 77.34834 37863 ft 467 kts 301°
2026-05-04 18:35 15.26537 77.29192 37866 ft 467 kts 301°
2026-05-04 18:35 15.30073 77.23543 37861 ft 467 kts 301°
2026-05-04 18:36 15.33600 77.17905 37855 ft 467 kts 301°
2026-05-04 18:36 15.37134 77.12254 37858 ft 467 kts 301°
2026-05-04 18:37 15.40693 77.06622 37854 ft 468 kts 303°
2026-05-04 18:37 15.44702 77.01289 37854 ft 468 kts 306°
2026-05-04 18:38 15.48697 76.96020 37854 ft 468 kts 306°
2026-05-04 18:38 15.52712 76.90713 37853 ft 468 kts 306°
2026-05-04 18:39 15.56725 76.85403 37851 ft 468 kts 306°
2026-05-04 18:39 15.60715 76.80122 37850 ft 467 kts 306°
2026-05-04 18:40 15.64723 76.74814 37856 ft 467 kts 306°
2026-05-04 18:40 15.68730 76.69503 37852 ft 467 kts 306°
2026-05-04 18:41 15.72701 76.64235 37842 ft 467 kts 306°
2026-05-04 18:41 15.76704 76.58923 37856 ft 467 kts 306°
2026-05-04 18:42 15.80697 76.53620 37862 ft 467 kts 306°
2026-05-04 18:42 15.84699 76.48302 37853 ft 467 kts 306°
2026-05-04 18:43 15.88693 76.42989 37868 ft 466 kts 306°
2026-05-04 18:43 15.92686 76.37675 37870 ft 467 kts 306°
2026-05-04 18:44 15.96676 76.32361 37861 ft 467 kts 306°
2026-05-04 18:44 16.00646 76.27068 37867 ft 467 kts 306°
2026-05-04 18:45 16.04663 76.21711 37878 ft 467 kts 306°
2026-05-04 18:45 16.08650 76.16389 37862 ft 467 kts 306°
2026-05-04 18:46 16.12550 76.11182 37866 ft 447 kts 306°
2026-05-04 18:46 16.16358 76.06091 37869 ft 449 kts 306°
2026-05-04 18:47 16.20190 76.00962 37863 ft 448 kts 306°
2026-05-04 18:47 16.24018 75.95839 37860 ft 448 kts 306°
2026-05-04 18:48 16.27841 75.90717 37868 ft 448 kts 306°
2026-05-04 18:48 16.31655 75.85604 37867 ft 448 kts 306°
2026-05-04 18:49 16.35473 75.80482 37859 ft 447 kts 306°
2026-05-04 18:49 16.39286 75.75363 37861 ft 447 kts 306°
2026-05-04 18:50 16.43100 75.70240 37858 ft 447 kts 306°
2026-05-04 18:50 16.46909 75.65118 37855 ft 447 kts 306°
2026-05-04 18:51 16.50714 75.59999 37861 ft 447 kts 306°
2026-05-04 18:51 16.54522 75.54873 37860 ft 447 kts 306°
2026-05-04 18:52 16.58324 75.49751 37862 ft 447 kts 306°
2026-05-04 18:52 16.62134 75.44627 37866 ft 447 kts 307°
2026-05-04 18:53 16.65991 75.39539 37868 ft 447 kts 307°
2026-05-04 18:53 16.69848 75.34455 37871 ft 447 kts 307°
2026-05-04 18:54 16.73702 75.29359 37876 ft 447 kts 307°
2026-05-04 18:54 16.77554 75.24257 37873 ft 447 kts 307°
2026-05-04 18:55 16.81405 75.19154 37876 ft 448 kts 307°
2026-05-04 18:55 16.87183 75.11491 37875 ft 448 kts 307°
2026-05-04 18:56 16.91028 75.06387 37880 ft 448 kts 307°
2026-05-04 18:56 16.94877 75.01273 37882 ft 448 kts 307°
2026-05-04 18:57 16.98726 74.96155 37880 ft 448 kts 307°
2026-05-04 18:57 17.02570 74.91042 37881 ft 447 kts 307°
2026-05-04 18:58 17.06410 74.85928 37881 ft 447 kts 307°
2026-05-04 18:58 17.10224 74.80847 37886 ft 447 kts 307°
2026-05-04 18:59 17.14060 74.75731 37884 ft 447 kts 307°
2026-05-04 18:59 17.17896 74.70613 37885 ft 447 kts 307°
2026-05-04 19:00 17.21728 74.65495 37888 ft 446 kts 307°
2026-05-04 19:00 17.25550 74.60387 37891 ft 446 kts 307°
2026-05-04 19:01 17.29371 74.55277 37895 ft 446 kts 306°
2026-05-04 19:01 17.33182 74.50175 37893 ft 445 kts 306°
2026-05-04 19:02 17.36998 74.45065 37891 ft 445 kts 306°
2026-05-04 19:02 17.40802 74.39965 37895 ft 444 kts 306°
2026-05-04 19:03 17.44604 74.34865 37897 ft 444 kts 306°
2026-05-04 19:03 17.48407 74.29777 37896 ft 444 kts 306°
2026-05-04 19:04 17.52212 74.24688 37900 ft 443 kts 307°
2026-05-04 19:04 17.56007 74.19604 37900 ft 443 kts 306°
2026-05-04 19:05 17.59802 74.14517 37901 ft 443 kts 307°
2026-05-04 19:05 17.63590 74.09436 37900 ft 442 kts 307°
2026-05-04 19:06 17.67376 74.04353 37906 ft 442 kts 307°
2026-05-04 19:06 17.71095 73.99358 37904 ft 419 kts 306°
2026-05-04 19:07 17.72854 73.96996 37906 ft 402 kts 306°
2026-05-04 19:07 17.74519 73.94759 37906 ft 385 kts 306°
2026-05-04 19:07 17.76131 73.92590 37906 ft 369 kts 306°
2026-05-04 19:07 17.77842 73.90670 37909 ft 355 kts 321°
2026-05-04 19:08 17.79963 73.89470 37755 ft 353 kts 340°
2026-05-04 19:08 17.82412 73.89100 37512 ft 364 kts
2026-05-04 19:08 17.84920 73.89598 37260 ft 371 kts 18°
2026-05-04 19:08 17.87204 73.90868 37000 ft 373 kts 35°
2026-05-04 19:09 17.89022 73.92786 36762 ft 373 kts 53°
2026-05-04 19:09 17.90212 73.95208 36470 ft 375 kts 72°
2026-05-04 19:09 17.90582 73.97010 36224 ft 376 kts 85°
2026-05-04 19:09 17.90207 74.00593 35751 ft 374 kts 110°
2026-05-04 19:10 17.89027 74.02977 35398 ft 367 kts 129°
2026-05-04 19:10 17.87223 74.04841 35050 ft 361 kts 148°
2026-05-04 19:10 17.85790 74.05703 34827 ft 357 kts 160°
2026-05-04 19:10 17.83426 74.06384 34484 ft 350 kts 178°
2026-05-04 19:11 17.80243 74.06112 34040 ft 341 kts 201°
2026-05-04 19:11 17.78791 74.05513 33802 ft 336 kts 212°
2026-05-04 19:11 17.76912 74.04125 33424 ft 327 kts 228°
2026-05-04 19:11 17.75507 74.02291 33054 ft 321 kts 243°
2026-05-04 19:12 17.74643 74.00160 32685 ft 316 kts 258°
2026-05-04 19:12 17.74642 73.95673 31961 ft 309 kts 287°
2026-05-04 19:12 17.75464 73.93614 31599 ft 305 kts 301°
2026-05-04 19:13 17.76742 73.91847 31253 ft 304 kts 311°
2026-05-04 19:13 17.78138 73.90061 30922 ft 333 kts 308°
2026-05-04 19:13 17.79611 73.88044 30601 ft 364 kts 307°
2026-05-04 19:13 17.81200 73.85846 30293 ft 393 kts 307°
2026-05-04 19:14 17.82917 73.83492 29980 ft 419 kts 308°
2026-05-04 19:14 17.84754 73.80993 29615 ft 443 kts 308°
2026-05-04 19:14 17.86666 73.78404 29243 ft 451 kts 308°
2026-05-04 19:14 17.88576 73.75819 28883 ft 446 kts 308°
2026-05-04 19:15 17.90467 73.73260 28525 ft 442 kts 308°
2026-05-04 19:15 17.92343 73.70719 28175 ft 440 kts 308°
2026-05-04 19:15 17.94215 73.68183 27826 ft 438 kts 308°
2026-05-04 19:15 17.96069 73.65668 27485 ft 435 kts 308°
2026-05-04 19:16 17.97919 73.63160 27147 ft 432 kts 308°
2026-05-04 19:16 17.99748 73.60678 26810 ft 430 kts 307°
2026-05-04 19:16 18.01574 73.58201 26476 ft 427 kts 307°
2026-05-04 19:16 18.03392 73.55732 26146 ft 425 kts 307°
2026-05-04 19:17 18.05197 73.53280 25823 ft 423 kts 307°
2026-05-04 19:17 18.06987 73.50848 25503 ft 420 kts 307°
2026-05-04 19:17 18.08757 73.48442 25186 ft 418 kts 307°
2026-05-04 19:17 18.10544 73.46015 24866 ft 416 kts 307°
2026-05-04 19:18 18.12221 73.43734 24570 ft 414 kts 307°
2026-05-04 19:18 18.14058 73.41271 24252 ft 412 kts 310°
2026-05-04 19:18 18.16106 73.39175 23948 ft 411 kts 320°
2026-05-04 19:18 18.18449 73.37522 23651 ft 411 kts 330°
2026-05-04 19:19 18.21045 73.36276 23327 ft 410 kts 336°
2026-05-04 19:19 18.23695 73.35104 22957 ft 408 kts 335°
2026-05-04 19:19 18.26268 73.33957 22602 ft 405 kts 335°
2026-05-04 19:19 18.28853 73.32800 22244 ft 403 kts 335°
2026-05-04 19:20 18.31423 73.31650 21893 ft 401 kts 336°
2026-05-04 19:20 18.33958 73.30514 21545 ft 399 kts 336°
2026-05-04 19:20 18.36507 73.29372 21202 ft 397 kts 336°
2026-05-04 19:20 18.39030 73.28241 20863 ft 394 kts 336°
2026-05-04 19:21 18.41557 73.27109 20521 ft 393 kts 336°
2026-05-04 19:21 18.44063 73.25986 20190 ft 390 kts 336°
2026-05-04 19:21 18.46551 73.24870 19860 ft 389 kts 336°
2026-05-04 19:21 18.49031 73.23758 19537 ft 387 kts 336°
2026-05-04 19:22 18.51501 73.22649 19209 ft 385 kts 336°
2026-05-04 19:22 18.53967 73.21543 18893 ft 384 kts 336°
2026-05-04 19:22 18.56416 73.20444 18574 ft 382 kts 336°
2026-05-04 19:22 18.58851 73.19351 18261 ft 380 kts 336°
2026-05-04 19:23 18.61281 73.18260 17919 ft 378 kts 336°
2026-05-04 19:23 18.63697 73.17177 17551 ft 376 kts 337°
2026-05-04 19:23 18.66179 73.16311 17198 ft 375 kts 346°
2026-05-04 19:23 18.68724 73.16059 16847 ft 365 kts
2026-05-04 19:24 18.71152 73.16684 16505 ft 356 kts 23°
2026-05-04 19:24 18.73172 73.18126 16161 ft 349 kts 44°
2026-05-04 19:24 18.74524 73.20200 15833 ft 342 kts 66°
2026-05-04 19:24 18.75039 73.22614 15494 ft 335 kts 88°
2026-05-04 19:25 18.74658 73.24961 15155 ft 319 kts 112°
2026-05-04 19:25 18.73480 73.26864 14832 ft 304 kts 137°
2026-05-04 19:25 18.71722 73.28035 14523 ft 300 kts 162°
2026-05-04 19:25 18.69683 73.28310 14198 ft 295 kts 188°
2026-05-04 19:26 18.67776 73.27649 13882 ft 287 kts 213°
2026-05-04 19:26 18.66390 73.26232 13567 ft 285 kts 239°
2026-05-04 19:26 18.65722 73.24299 13214 ft 281 kts 262°
2026-05-04 19:26 18.65625 73.22249 12859 ft 280 kts 272°
2026-05-04 19:27 18.65588 73.20200 12492 ft 279 kts 265°
2026-05-04 19:27 18.65741 73.18182 12163 ft 278 kts 288°
2026-05-04 19:27 18.66729 73.16453 11816 ft 279 kts 315°
2026-05-04 19:27 18.68369 73.15366 11406 ft 282 kts 341°
2026-05-04 19:28 18.70312 73.15113 10939 ft 285 kts
2026-05-04 19:28 18.72300 73.15276 10466 ft 287 kts
2026-05-04 19:28 18.74293 73.15459 10006 ft 288 kts
2026-05-04 19:28 18.76273 73.15567 9537 ft 289 kts
2026-05-04 19:29 18.78307 73.15610 9032 ft 289 kts 360°
2026-05-04 19:29 18.80327 73.15619 8540 ft 289 kts 360°
2026-05-04 19:29 18.82334 73.15642 8057 ft 290 kts 360°
2026-05-04 19:29 18.84334 73.15674 7697 ft 284 kts 360°
2026-05-04 19:30 18.86242 73.15714 7362 ft 271 kts 360°
2026-05-04 19:30 18.88111 73.15765 7028 ft 262 kts 360°
2026-05-04 19:30 18.89943 73.15824 6703 ft 263 kts 360°
2026-05-04 19:30 18.91741 73.15891 6400 ft 262 kts 360°
2026-05-04 19:31 18.93586 73.15965 6058 ft 261 kts 360°
2026-05-04 19:31 18.95370 73.16041 5715 ft 259 kts 360°
2026-05-04 19:31 18.97163 73.16119 5403 ft 256 kts 360°
2026-05-04 19:31 18.98932 73.16199 5114 ft 253 kts 360°
2026-05-04 19:32 19.00681 73.16280 4834 ft 250 kts 360°
2026-05-04 19:32 19.02409 73.16362 4549 ft 247 kts 360°
2026-05-04 19:32 19.04120 73.16441 4249 ft 245 kts 360°
2026-05-04 19:32 19.05818 73.16518 3959 ft 243 kts 360°
2026-05-04 19:33 19.07466 73.16276 3829 ft 239 kts 332°
2026-05-04 19:33 19.08644 73.15117 3736 ft 233 kts 297°
2026-05-04 19:33 19.09142 73.13503 3644 ft 230 kts 277°
2026-05-04 19:33 19.09250 73.11817 3540 ft 229 kts 269°
2026-05-04 19:34 19.09221 73.10156 3441 ft 226 kts 267°
2026-05-04 19:34 19.09197 73.08526 3343 ft 214 kts 267°
2026-05-04 19:34 19.09174 73.06999 3246 ft 202 kts 267°
2026-05-04 19:34 19.09154 73.05591 3125 ft 193 kts 266°
2026-05-04 19:35 19.09133 73.04186 2923 ft 190 kts 266°
2026-05-04 19:35 19.09112 73.02797 2733 ft 184 kts 266°
2026-05-04 19:35 19.09092 73.01481 2497 ft 174 kts 266°
2026-05-04 19:35 19.09074 73.00224 2277 ft 167 kts 266°
2026-05-04 19:36 19.09057 72.99047 2066 ft 152 kts 265°
2026-05-04 19:36 19.09042 72.97984 1877 ft 138 kts 266°
2026-05-04 19:36 19.09024 72.96946 1700 ft 141 kts 266°
2026-05-04 19:36 19.09009 72.95912 1521 ft 140 kts 265°
2026-05-04 19:37 19.08994 72.94885 1340 ft 140 kts 266°
2026-05-04 19:37 19.08979 72.93860 1159 ft 139 kts 266°
2026-05-04 19:37 19.08964 72.92834 989 ft 141 kts 266°
2026-05-04 19:37 19.08949 72.91807 816 ft 138 kts 266°
2026-05-04 19:38 19.08933 72.90796 649 ft 141 kts 266°
2026-05-04 19:38 19.08918 72.89748 465 ft 141 kts 266°
2026-05-04 19:38 19.08898 72.88745 261 ft 134 kts 266°
2026-05-04 19:38 19.08882 72.87717 109 ft 138 kts 267°
2026-05-04 19:39 19.08867 72.86754 48 ft 114 kts 270°
2026-05-04 19:39 19.08864 72.86243 47 ft 27 kts 270°
2026-05-04 19:39 19.08863 72.86116 47 ft 20 kts 269°
2026-05-04 19:39 19.08889 72.85956 46 ft 24 kts 288°
2026-05-04 19:40 19.08932 72.85869 47 ft 13 kts 300°
2026-05-04 19:40 19.08980 72.85779 49 ft 14 kts 300°
2026-05-04 19:40 19.09028 72.85682 47 ft 15 kts 276°
2026-05-04 19:40 19.09055 72.85607 48 ft 8 kts 341°
2026-05-04 19:41 19.09102 72.85580 49 ft 4 kts 288°
2026-05-04 19:41 19.09095 72.85546 49 ft 8 kts 261°
2026-05-04 19:41 19.09092 72.85474 49 ft 12 kts 270°
2026-05-04 19:41 19.09097 72.85414 49 ft 2 kts 317°
2026-05-04 19:42 19.09135 72.85410 49 ft 8 kts 359°
2026-05-04 19:42 19.09158 72.85410 49 ft 0 kts